Wind_Speed
64 63 61 60 60 60 61 61 61 61 61 61 61 61 61 62 62 63 64 64 65 66 67 68 69 70 70 70 70 69 69 69 68 65 63 64 67 70 69 68 68 67 69 74 77 76 75 69 64 64 61 58 55 54 51 48 46 47 48 49 48 47 45 43 43 44 43 41 39 39 40 36 32 31 32 33 34 34 34 33 30 28 26 23 22
65 64 62 60 60 62 63 64 63 62 62 62 63 63 63 64 64 65 65 66 67 68 69 70 71 72 72 72 71 69 69 67 65 64 65 68 70 68 67 69 70 71 74 77 77 76 74 69 66 65 60 57 55 53 49 46 46 48 49 48 46 45 43 42 44 44 41 39 37 39 37 32 30 32 33 33 33 34 34 32 30 27 23 20 19
66 64 63 62 62 63 65 66 65 64 64 64 64 65 65 66 66 66 67 68 69 70 71 71 72 73 73 73 72 70 69 66 65 66 69 70 68 68 71 73 74 76 77 78 77 76 73 69 67 64 60 57 55 52 47 46 48 49 48 46 44 43 42 43 44 42 39 37 37 37 34 31 31 32 33 33 33 33 33 32 28 24 20 18 18
67 65 64 63 63 64 66 67 67 65 65 65 66 66 67 67 68 68 69 70 71 72 72 73 73 74 74 74 73 71 69 68 68 70 71 70 70 73 76 76 77 77 77 77 76 74 71 68 66 63 59 56 54 50 46 47 48 48 46 44 43 41 42 43 43 40 37 36 36 34 30 31 32 32 33 33 33 33 32 30 26 21 17 16 16
69 68 66 65 65 65 67 68 68 67 66 66 67 67 68 69 69 70 72 73 74 74 74 74 74 74 74 75 74 72 71 70 71 72 72 73 75 77 77 77 77 76 76 76 74 71 68 66 64 61 58 55 51 47 47 48 47 46 44 42 42 40 42 42 40 37 35 35 33 29 29 31 31 31 32 34 33 32 31 29 23 18 15 14 14
70 69 68 67 66 67 68 70 70 69 68 68 68 69 69 70 71 72 73 75 75 76 75 75 75 75 75 75 75 74 73 73 73 74 75 76 78 78 77 77 76 76 75 73 71 68 65 64 61 58 56 52 48 47 48 47 46 44 41 41 40 40 42 40 38 35 34 33 30 28 30 31 30 30 32 34 33 31 30 27 21 16 14 12 12
70 70 69 68 68 69 70 71 72 71 70 70 70 71 71 72 73 74 75 76 76 76 76 76 76 75 75 75 75 75 75 75 76 77 77 78 78 78 77 76 75 74 72 69 66 64 62 60 57 55 53 50 47 47 46 46 45 41 39 40 40 40 40 38 35 34 33 31 29 29 31 29 28 30 33 34 33 31 28 25 20 16 13 12 12
71 70 69 69 69 71 72 72 72 72 72 72 72 73 74 74 75 75 75 76 77 77 77 76 76 76 76 76 76 76 76 76 77 78 78 78 78 77 76 74 73 71 68 65 62 59 57 56 55 54 51 48 47 46 45 44 42 38 38 39 39 39 37 35 34 34 33 30 28 30 30 28 27 30 33 34 34 30 27 24 20 16 13 13 13
72 71 71 71 72 73 73 73 73 73 74 74 74 75 76 76 76 76 76 76 77 77 76 76 76 76 77 77 77 77 77 78 78 79 78 78 77 76 74 71 69 67 63 60 57 55 54 54 54 51 49 47 46 44 43 42 38 36 38 39 39 37 35 34 34 34 32 29 28 29 28 27 27 30 32 34 35 31 27 23 19 16 14 14 14
73 73 73 74 74 74 73 73 73 74 75 75 76 76 77 76 76 77 77 77 77 76 76 76 76 77 77 78 78 78 78 78 78 78 77 76 75 73 71 67 64 62 60 57 53 52 54 53 51 48 47 46 44 41 39 37 36 36 38 38 37 36 34 34 33 33 30 28 28 27 25 26 27 29 32 34 35 32 27 22 19 16 15 14 14
74 74 75 75 75 74 73 73 74 74 75 76 77 77 77 77 77 77 77 77 76 76 76 76 76 77 77 78 78 78 78 77 76 75 74 73 72 70 67 64 60 59 56 52 50 52 53 50 48 47 46 44 41 38 35 34 36 38 38 37 35 34 33 32 31 31 29 27 27 26 23 24 26 28 31 33 35 34 28 22 19 16 15 14 14
75 76 76 76 75 74 74 73 74 74 76 77 77 78 78 78 77 77 77 77 76 76 76 76 76 77 77 77 77 77 76 75 73 72 71 70 69 67 65 61 57 54 51 49 50 52 50 47 46 45 43 40 37 35 33 34 38 39 37 35 33 32 31 31 29 28 27 26 26 25 22 24 26 28 31 33 34 34 29 23 19 16 15 14 14
77 77 77 77 76 75 74 74 74 75 76 77 77 77 77 77 77 77 76 76 76 76 76 76 76 76 76 75 75 74 73 71 70 69 68 67 66 65 63 59 53 49 48 49 51 49 47 45 43 40 38 37 35 33 33 36 38 37 34 32 32 31 31 30 28 26 26 26 25 24 22 24 26 28 31 33 34 33 30 23 19 16 16 15 15
79 78 78 77 76 75 75 74 75 75 76 76 77 76 76 76 76 76 75 75 75 75 75 75 74 74 73 72 72 70 69 68 67 67 66 66 65 63 60 55 49 47 48 49 48 46 45 43 39 37 36 35 35 34 36 36 34 33 32 31 31 31 31 30 28 26 25 25 25 23 22 24 26 28 31 33 33 32 29 24 19 16 16 16 15
78 78 77 76 76 75 75 75 75 75 76 76 75 75 75 75 74 74 74 74 74 74 73 73 72 71 70 69 68 67 67 67 66 66 65 64 61 58 54 50 47 47 47 47 45 44 43 39 36 34 34 35 37 38 37 32 30 31 31 30 30 30 31 31 29 27 26 26 25 24 23 25 26 27 30 32 32 32 29 24 19 16 15 16 16
76 76 75 74 74 74 74 74 75 75 74 74 74 74 73 73 72 72 72 71 71 71 70 69 69 68 68 67 66 66 66 66 65 64 61 58 55 53 51 49 48 46 46 44 43 43 40 35 33 33 35 37 39 38 32 28 28 30 30 28 28 30 32 31 30 29 28 27 26 25 25 27 27 27 29 30 30 31 28 23 18 15 14 16 17
74 73 73 72 72 72 73 73 73 73 73 72 72 72 71 70 70 70 69 69 68 68 68 67 67 66 66 65 65 64 64 63 60 58 55 52 51 51 50 49 48 46 45 44 43 41 37 32 31 32 35 37 36 32 28 27 28 29 29 28 28 29 31 31 30 30 30 29 28 26 26 28 27 28 29 29 29 29 27 22 18 15 14 15 16
73 72 72 71 72 72 72 72 72 72 72 71 71 70 70 69 69 68 68 67 67 66 66 66 65 65 64 64 62 60 58 56 53 51 50 49 50 50 49 48 47 46 45 44 42 39 34 30 29 30 32 32 30 28 28 29 28 28 30 30 28 29 30 30 31 31 30 30 29 27 27 28 28 28 28 28 28 28 27 22 17 15 14 14 16
73 72 72 72 72 72 72 72 72 72 71 71 71 70 70 69 68 68 67 66 66 65 65 65 64 63 62 61 58 55 52 50 50 50 48 47 48 49 49 48 48 47 47 45 41 36 32 29 27 28 29 29 28 29 30 30 29 29 30 31 29 28 28 29 30 31 30 29 28 26 27 29 30 29 28 27 27 27 26 21 16 14 13 15 16
74 73 73 73 73 73 73 72 72 72 72 72 71 70 69 69 68 67 66 65 65 65 64 64 63 62 60 57 54 52 51 51 51 50 48 47 48 48 49 49 48 47 46 43 39 35 31 28 27 27 28 29 30 31 32 32 31 29 30 30 28 26 28 29 29 29 28 27 26 26 27 30 30 29 27 26 27 27 26 21 16 14 14 15 16
74 74 74 74 74 74 74 73 73 73 73 72 71 70 69 68 67 66 65 65 64 64 63 62 61 59 57 55 53 53 53 51 50 48 47 47 47 49 49 49 47 46 44 42 39 36 32 29 28 27 29 30 32 33 34 33 32 29 28 28 27 26 27 28 28 26 25 25 25 26 28 31 31 29 26 25 26 27 26 21 16 14 14 14 16
75 75 75 75 75 74 74 73 73 73 72 71 69 68 67 66 65 65 64 64 64 63 62 60 59 57 55 53 53 53 52 50 48 46 46 47 48 49 48 47 46 45 43 41 39 36 33 30 29 29 30 33 34 35 35 35 33 30 28 27 26 26 27 27 26 25 24 25 26 27 29 31 31 28 25 24 26 27 26 22 16 13 13 14 15
77 76 76 76 75 74 73 73 72 72 70 69 68 66 65 64 64 64 64 63 63 61 60 58 57 55 53 52 52 52 51 49 47 46 47 48 48 48 47 47 46 44 42 41 40 38 34 31 30 30 32 35 36 37 37 36 34 32 30 27 25 26 26 26 25 25 25 25 27 27 29 30 29 26 23 23 25 26 26 22 17 13 12 14 14
77 77 76 75 74 73 72 72 71 70 69 67 66 64 63 63 62 63 62 61 60 59 57 56 55 53 52 53 52 51 49 48 47 47 48 48 48 48 48 48 45 42 41 40 40 38 35 33 31 31 34 36 37 37 37 37 35 33 31 27 25 25 26 25 26 27 27 26 27 27 28 29 28 24 21 22 24 26 25 22 17 12 11 13 14
74 73 73 72 71 71 70 70 69 68 66 65 63 62 61 61 61 61 60 59 57 56 55 54 53 52 52 52 51 50 48 47 48 48 48 48 48 48 48 47 44 41 41 40 39 38 36 34 33 34 37 38 38 36 36 37 36 33 31 27 25 25 26 26 26 29 30 28 27 27 28 27 25 22 20 20 23 25 24 22 17 13 12 13 14
69 69 68 68 67 66 66 66 65 64 63 61 60 60 59 59 59 58 57 56 54 53 52 51 51 51 51 51 50 48 48 48 48 48 48 48 49 49 48 45 43 42 42 42 40 39 37 36 37 38 39 39 36 34 35 36 35 31 29 27 26 26 26 26 27 29 30 29 28 27 27 25 22 19 19 20 22 23 22 20 17 13 12 13 14
61 61 62 62 62 63 64 62 61 60 59 58 57 56 56 57 56 55 54 53 52 51 50 49 49 49 49 49 48 48 49 49 48 48 49 48 48 47 45 43 43 43 42 41 41 40 39 39 40 40 40 38 33 31 32 33 31 29 27 26 26 26 26 26 27 28 29 29 27 26 25 23 19 18 19 20 21 22 20 17 15 13 13 14 14
49 49 49 48 49 52 54 55 54 54 53 52 52 53 54 54 54 53 52 51 50 49 49 48 48 48 48 48 48 48 48 48 48 48 48 47 46 45 43 42 42 42 41 41 40 40 40 40 41 41 39 35 31 29 28 28 28 27 27 26 26 27 26 25 24 25 27 27 26 25 23 20 18 18 19 20 21 20 18 16 14 13 14 15 15
43 42 40 40 41 43 45 45 46 46 47 50 51 53 54 54 53 52 51 50 49 48 48 47 47 47 47 47 47 47 47 47 47 47 45 44 43 43 42 42 41 41 42 41 41 41 41 41 41 40 36 31 27 25 24 25 26 27 26 25 25 26 25 24 24 24 26 26 26 24 22 19 18 19 19 20 20 20 18 16 15 14 14 15 15
44 42 40 43 47 49 48 47 48 51 53 56 56 56 55 54 53 52 51 50 49 48 47 46 45 45 45 45 46 46 46 46 45 44 42 42 41 41 41 41 41 41 42 42 42 42 41 41 39 35 30 26 23 21 22 24 25 25 24 23 24 24 25 25 26 26 27 27 25 23 20 18 17 19 20 20 20 20 18 17 16 14 15 16 16
51 50 50 52 55 57 58 59 61 62 60 58 56 55 54 53 52 51 50 49 47 46 45 45 44 44 44 44 44 45 44 44 42 41 40 40 39 39 39 38 39 40 40 41 41 41 40 38 35 30 24 21 19 19 21 22 22 21 22 23 25 26 28 29 28 28 28 26 25 23 19 17 18 20 20 20 20 20 19 17 15 14 15 16 16
56 57 58 59 60 62 64 66 65 63 60 56 53 52 51 51 50 49 48 47 46 44 43 43 43 43 42 42 43 42 42 40 39 38 37 37 36 35 35 36 37 37 37 38 39 38 37 33 29 24 19 17 17 18 20 21 22 23 25 28 29 30 31 32 31 30 29 28 26 22 18 17 19 21 20 20 19 19 18 17 15 14 14 15 16
57 57 58 60 61 63 64 64 62 60 57 54 52 51 50 49 48 47 46 45 43 43 42 42 41 41 41 40 40 39 37 35 34 33 33 32 31 32 33 34 34 33 33 34 34 33 31 26 22 19 16 16 18 20 22 24 26 29 31 32 33 34 34 34 33 31 30 27 24 20 18 19 20 20 20 19 19 18 17 18 17 15 15 14 15
55 56 57 56 56 56 57 57 56 56 55 53 52 51 50 49 47 45 44 43 42 41 41 40 39 39 38 36 34 32 31 30 29 29 28 28 29 31 31 31 30 29 29 29 29 28 25 22 19 19 19 21 23 25 28 30 32 33 34 35 35 35 34 33 31 29 26 23 20 18 19 20 20 20 19 18 18 18 18 19 19 18 17 16 16
43 44 46 46 46 47 48 51 52 53 52 51 50 49 48 47 45 43 42 41 40 38 37 36 36 34 32 30 29 28 27 27 26 25 25 26 27 28 28 27 26 26 26 26 26 25 23 22 22 23 25 26 28 29 31 32 33 33 34 34 34 33 32 30 27 25 22 19 17 17 19 20 20 20 20 19 19 18 18 18 20 20 19 18 17
34 32 36 39 39 41 43 47 49 48 48 47 46 45 44 42 41 40 39 37 36 35 33 32 31 29 27 27 27 27 26 25 24 23 23 25 26 26 25 24 24 24 24 24 25 24 24 24 25 26 27 28 28 29 29 30 30 31 32 33 33 32 30 27 24 21 18 18 17 16 18 19 19 20 20 20 19 18 18 19 20 19 18 18 18
34 29 29 33 34 35 37 40 43 44 45 44 42 41 39 38 37 36 34 34 33 32 30 29 28 27 27 27 27 26 25 24 23 23 24 24 25 24 23 22 22 23 22 22 23 24 25 26 27 27 28 28 28 28 28 28 29 31 33 33 32 28 24 20 18 17 16 16 17 15 15 16 17 18 19 19 18 18 18 20 20 18 18 20 21
41 32 26 28 32 35 34 34 37 38 38 38 37 36 35 34 33 32 31 31 30 29 29 28 28 28 29 28 27 25 25 24 24 25 25 25 24 23 22 21 21 22 22 22 23 23 24 26 26 26 26 26 25 25 25 27 29 29 29 28 24 20 17 14 14 15 15 15 18 18 16 16 18 19 19 20 20 20 21 20 20 20 22 23 21
51 42 35 36 38 38 35 34 33 32 31 30 29 29 29 30 30 30 29 28 28 29 29 29 29 30 29 27 26 25 25 26 27 27 26 26 25 23 22 21 20 22 23 22 22 22 22 23 23 23 23 22 21 22 25 27 25 22 20 20 18 14 11 10 10 12 15 17 20 22 20 20 20 21 21 22 23 23 22 21 22 23 23 21 20
56 53 49 47 46 42 40 40 37 33 32 30 27 27 27 27 28 29 28 29 30 30 30 30 30 29 27 26 25 26 28 28 28 28 27 27 26 24 23 21 21 22 23 23 23 22 21 21 21 20 20 19 20 23 24 22 19 16 16 17 17 14 9 7 7 11 15 19 21 21 20 20 20 20 21 22 23 24 24 23 23 23 21 20 21
55 58 56 53 54 54 52 49 45 40 38 35 33 31 30 29 29 30 31 32 32 31 31 30 29 28 27 27 27 29 30 30 29 29 28 28 27 25 24 23 22 23 23 23 23 22 22 21 20 19 18 18 20 20 19 17 16 16 16 16 16 14 9 5 6 11 16 18 21 20 19 19 20 20 22 24 23 23 25 25 24 22 21 21 23
57 57 57 56 58 62 62 59 54 47 42 39 37 36 36 35 33 32 32 33 33 32 32 31 30 29 30 30 31 31 31 31 31 31 30 30 29 27 25 25 24 25 26 26 25 24 23 22 21 19 17 16 16 14 15 17 18 17 17 16 16 14 10 6 8 13 15 17 20 21 21 22 23 24 26 26 26 25 27 29 27 26 25 24 25
63 59 58 58 58 61 62 61 58 51 45 41 40 40 40 39 38 36 34 34 34 34 34 33 32 32 33 33 33 33 32 32 32 32 32 31 30 29 27 27 26 27 28 28 28 27 26 24 22 19 17 14 11 11 15 19 19 19 17 15 14 13 12 10 10 14 16 18 21 23 25 26 27 29 30 30 31 31 31 31 31 31 29 27 27
66 63 60 58 58 59 59 58 57 53 49 46 45 44 43 42 42 40 38 36 36 37 37 36 35 34 34 34 34 33 33 33 33 33 33 32 31 30 29 29 28 28 29 29 29 28 27 25 22 19 17 13 10 12 16 18 18 18 18 15 12 12 12 12 13 15 17 20 23 25 26 28 29 31 32 32 33 34 33 33 33 33 32 31 31
66 65 63 60 58 58 58 57 57 55 53 52 50 47 45 44 43 41 40 39 40 40 40 39 38 35 34 34 34 34 34 34 35 34 34 33 33 32 32 31 30 30 30 30 29 28 27 25 22 20 18 15 14 16 18 19 18 17 17 16 14 11 11 14 16 17 19 21 23 25 26 28 31 33 34 33 32 34 35 35 36 35 34 34 35
67 67 66 63 61 60 60 59 58 56 54 53 52 50 48 47 46 44 43 42 43 43 43 42 40 37 36 35 35 34 35 35 35 35 34 34 34 34 33 32 32 31 31 30 29 28 27 25 23 21 19 17 18 20 20 21 20 17 16 16 15 13 10 13 18 20 21 22 25 26 27 28 30 33 33 33 32 34 36 37 38 37 35 33 33
68 67 66 65 63 61 60 58 57 56 53 52 51 50 49 48 47 46 45 45 46 45 45 44 43 41 38 37 37 36 36 36 35 35 35 34 34 33 33 32 32 32 31 30 29 28 26 25 24 22 20 20 21 22 22 22 21 19 17 16 15 14 12 11 13 19 23 25 26 28 28 29 31 33 33 33 34 36 38 40 40 39 37 35 34
66 67 66 65 65 64 62 59 57 55 53 51 50 49 48 48 47 46 45 45 45 45 45 45 45 43 41 40 39 39 38 36 35 35 34 33 32 32 32 32 32 32 32 31 29 27 25 25 24 22 21 22 23 24 24 24 23 21 20 18 16 15 14 13 11 13 18 23 27 29 29 31 33 33 33 33 34 37 40 42 42 42 42 42 41
58 62 64 65 65 65 64 62 58 55 52 50 49 49 49 49 49 48 46 45 43 42 43 44 45 44 43 42 40 39 38 37 36 34 33 32 31 32 33 33 33 32 32 30 27 26 25 24 23 23 23 23 24 25 25 25 24 23 22 20 18 16 16 15 14 13 14 17 22 27 30 33 34 34 34 34 34 35 37 39 40 41 42 43 43
51 55 59 61 64 65 63 61 58 54 51 50 50 51 52 52 51 50 48 46 44 41 40 41 42 43 43 42 41 39 38 37 36 34 33 32 31 32 32 31 31 30 29 27 26 25 24 24 23 23 24 25 25 25 24 24 24 23 23 22 20 19 18 18 18 17 16 15 17 21 26 30 33 34 36 37 37 38 39 40 41 42 44 44 45
48 50 54 57 61 63 62 60 58 56 53 51 52 53 54 55 55 54 52 50 49 46 43 41 40 40 41 40 40 39 38 37 36 35 33 32 32 32 31 30 30 29 28 27 26 25 25 24 24 24 25 26 25 24 23 23 23 23 23 23 22 21 20 20 20 20 19 18 17 18 20 23 26 29 31 33 35 36 37 38 39 40 41 41 41
Wind_Direction
278 278 280 282 282 283 284 285 285 286 288 289 291 293 294 295 296 296 297 297 298 298 299 300 301 301 302 302 303 304 305 305 306 306 307 307 308 311 313 315 316 315 315 315 315 316 318 318 320 321 321 320 319 318 317 316 316 317 318 318 318 317 318 319 323 326 325 322 319 318 319 318 316 317 320 321 322 321 318 314 310 304 297 287 277
277 279 280 281 282 283 285 285 286 287 289 291 292 293 294 295 295 295 296 297 297 298 299 299 300 300 301 301 303 304 305 305 305 305 306 307 309 311 312 313 313 312 312 313 313 315 316 316 318 320 320 319 318 317 316 315 315 317 318 318 317 317 318 322 325 326 324 321 319 319 318 318 319 321 322 322 322 321 319 316 312 306 298 286 272
277 279 280 280 281 283 284 285 286 288 289 291 292 293 293 294 294 295 295 296 296 296 297 297 298 299 300 301 302 303 304 304 304 304 306 307 309 309 310 310 310 310 310 311 312 314 315 315 317 318 318 317 317 316 314 314 316 318 318 318 318 318 321 325 326 324 323 320 319 318 317 320 323 324 323 323 322 322 320 317 313 307 300 284 268
277 278 279 280 281 282 283 284 285 287 288 289 290 291 292 292 293 294 294 294 294 295 295 296 297 298 299 300 301 302 302 303 303 304 306 306 306 306 308 308 309 309 310 311 311 313 314 314 315 316 316 316 316 315 313 315 317 318 318 318 318 321 324 326 324 323 322 320 319 318 319 324 326 325 324 325 324 324 321 318 312 304 294 278 266
277 278 279 280 280 281 282 283 284 285 286 287 288 289 290 290 291 292 292 293 293 293 294 295 296 297 298 299 300 301 302 302 302 303 303 303 303 305 306 308 309 309 310 311 311 312 314 314 314 315 315 316 316 314 314 316 318 319 318 318 320 323 325 325 323 322 321 320 319 318 321 326 326 326 326 327 327 325 322 318 311 300 288 273 264
276 278 279 280 280 281 281 282 282 284 285 286 287 287 288 288 289 290 290 291 292 293 293 294 295 296 297 298 299 300 301 302 302 302 302 302 303 304 306 307 308 309 310 311 312 313 314 314 314 314 315 316 315 314 315 317 318 318 318 319 321 324 325 324 322 321 319 319 318 318 321 325 325 327 329 330 329 326 323 318 309 297 287 275 268
276 276 278 279 280 280 280 281 282 283 284 285 285 286 286 287 287 288 289 290 291 292 293 293 294 295 297 298 299 300 300 301 301 302 302 303 303 304 305 307 308 309 310 311 312 314 314 314 314 315 315 315 314 315 316 317 318 318 318 320 323 324 324 323 321 318 317 316 317 321 323 325 326 330 333 333 331 328 323 317 307 296 285 278 275
275 276 277 278 279 279 280 280 281 282 283 284 284 285 285 286 287 288 289 290 290 291 292 293 294 295 296 297 298 299 300 300 301 301 302 302 302 303 305 307 308 309 310 312 313 314 314 314 314 315 315 315 315 316 317 317 317 317 318 321 323 323 322 321 318 315 314 315 319 323 325 326 329 332 336 337 334 330 324 316 305 294 283 280 276
275 276 276 277 278 279 280 280 281 282 283 283 284 284 285 286 286 287 288 289 290 290 292 292 293 295 296 297 298 299 299 300 300 301 301 301 302 303 305 307 308 309 310 312 313 314 314 315 315 315 315 315 316 317 317 316 316 317 319 321 323 322 321 318 315 313 313 315 319 324 326 328 330 332 336 337 336 332 325 316 302 289 282 279 275
274 275 276 277 278 279 280 280 281 281 282 283 284 284 285 285 286 287 288 288 289 290 291 292 293 294 296 297 297 298 299 299 300 300 300 301 302 303 305 307 308 309 311 312 313 314 315 315 316 316 315 315 316 317 318 316 316 318 319 321 322 322 321 318 315 314 313 316 320 324 327 328 329 331 334 336 335 331 325 316 301 284 279 278 270
274 275 275 276 277 278 279 280 281 281 282 283 283 284 285 285 286 287 287 288 289 290 291 292 293 294 295 296 297 297 298 299 299 300 301 301 302 304 305 307 308 310 311 312 312 314 316 316 317 317 316 316 316 318 319 317 317 318 319 322 322 322 321 319 317 314 313 314 318 324 329 329 329 331 333 333 332 329 325 318 304 281 274 276 264
273 274 275 276 277 278 279 280 281 281 282 282 283 284 284 285 286 287 288 288 289 290 291 292 293 294 294 295 296 297 298 298 299 300 301 302 303 304 305 307 309 310 311 311 313 315 316 316 317 316 316 316 316 318 318 317 317 317 319 322 322 322 321 320 318 315 312 312 316 324 328 327 328 330 330 330 329 327 323 318 307 282 268 272 262
273 274 275 276 278 278 279 280 280 281 281 282 282 283 284 285 286 287 288 288 289 290 291 292 293 293 294 294 295 296 297 298 299 300 301 302 303 304 305 307 309 310 310 311 313 315 315 316 317 317 316 315 316 316 317 317 317 317 319 321 321 321 321 320 318 316 313 310 317 324 326 326 328 329 328 328 328 324 321 316 309 288 264 266 263
274 275 276 277 278 279 279 280 280 280 281 281 282 283 284 285 286 287 287 288 289 290 291 291 292 292 293 294 295 297 298 299 300 301 301 302 303 304 306 308 309 309 309 311 313 315 316 317 318 318 316 314 313 313 315 317 317 317 317 319 319 319 320 320 319 319 316 314 319 324 325 326 326 326 324 324 324 322 319 313 307 294 267 260 262
274 275 276 277 278 279 279 279 280 280 281 281 282 283 284 285 286 287 288 289 289 290 290 291 291 292 293 295 296 297 299 300 300 301 302 303 304 305 306 308 308 309 310 311 313 315 316 318 320 318 313 311 309 310 313 317 319 317 316 317 318 317 318 320 321 320 319 318 321 324 324 325 325 325 324 321 321 320 318 311 303 297 275 259 259
274 275 276 277 278 278 278 279 279 279 280 281 282 283 284 285 286 287 288 289 289 290 290 291 292 293 294 296 297 298 299 300 300 301 302 304 304 305 306 307 308 310 311 312 314 316 317 320 320 314 310 309 308 309 313 318 320 317 316 317 317 316 317 319 321 321 320 320 322 323 322 325 325 323 324 322 319 319 318 311 300 294 281 264 259
274 275 276 277 277 277 278 278 279 279 280 281 282 283 285 286 287 288 288 289 289 290 290 291 292 294 295 296 297 298 299 300 300 302 304 305 304 305 306 307 309 311 311 312 315 317 318 319 316 312 310 309 308 309 312 317 318 316 315 315 315 315 316 318 320 321 320 320 322 323 322 323 322 320 321 321 318 318 317 311 299 289 282 270 260
274 275 276 276 277 277 278 278 279 280 281 282 284 285 286 287 287 288 289 289 289 289 290 291 293 294 295 296 298 299 299 300 301 302 304 304 303 305 306 308 311 311 312 312 314 316 316 316 312 311 312 311 307 307 310 314 316 314 313 312 312 313 314 318 319 319 319 319 321 323 323 322 319 318 319 318 315 315 316 310 298 286 279 274 264
275 276 276 276 277 277 278 279 280 281 282 283 284 285 286 287 287 288 288 289 289 289 290 292 293 294 295 297 298 298 299 300 301 302 302 301 303 305 307 309 311 311 311 311 313 314 313 311 308 310 315 310 304 303 305 310 314 313 312 311 309 310 313 317 319 319 318 318 318 320 321 320 317 316 317 315 312 312 314 310 298 283 275 274 267
276 276 277 277 277 278 278 279 280 281 282 282 283 284 285 286 287 287 288 288 288 289 290 291 292 293 295 296 296 296 297 299 300 301 300 300 303 305 307 308 310 310 310 309 310 311 309 307 303 307 314 310 302 300 302 307 312 313 311 310 308 310 313 316 318 318 316 315 315 317 319 317 314 315 315 312 310 310 312 310 298 283 272 271 267
275 276 277 277 277 278 279 280 280 280 281 282 283 284 285 285 286 286 286 287 288 289 290 291 292 293 294 294 294 295 297 298 299 299 299 301 303 304 306 307 308 309 308 307 308 308 307 304 300 303 311 309 303 300 301 305 310 312 309 307 308 310 313 313 315 314 313 312 313 315 316 315 312 314 314 310 308 309 311 308 301 285 272 270 265
274 275 276 277 278 278 279 279 280 280 281 282 283 283 284 285 285 285 285 286 287 288 290 290 291 292 292 292 293 295 297 298 298 298 299 301 303 304 305 306 308 308 307 306 307 307 305 303 301 303 309 308 304 302 302 303 306 310 308 306 308 310 310 309 310 310 310 311 312 314 314 311 309 311 312 309 307 308 309 306 302 291 275 272 264
273 274 275 276 277 278 279 279 279 280 281 282 282 283 284 284 284 284 284 286 287 288 289 290 290 291 291 291 293 295 296 296 296 297 299 301 302 303 304 306 308 306 305 305 306 307 305 303 300 301 305 305 303 302 301 300 302 306 306 306 308 308 306 305 306 307 308 310 311 313 311 308 307 309 308 306 305 307 307 302 302 295 278 274 260
274 274 275 276 277 277 278 278 279 280 281 282 282 283 283 283 283 283 284 286 287 288 288 288 289 289 290 291 293 294 295 295 295 297 299 300 302 303 305 307 306 305 305 306 305 304 303 301 299 298 301 303 302 300 297 295 298 302 304 306 306 304 302 302 304 306 307 308 309 310 308 306 305 306 305 302 302 304 304 299 299 295 277 270 258
274 275 276 276 276 277 278 278 279 280 281 281 282 282 282 282 282 283 285 286 287 287 287 287 288 289 289 291 293 293 293 293 295 297 298 300 302 304 305 306 304 304 304 303 301 299 299 299 298 297 299 301 300 296 292 292 295 300 302 304 303 301 300 301 303 304 304 306 306 307 306 304 304 303 300 297 298 302 303 300 298 294 275 264 257
275 276 277 277 277 277 278 278 279 280 280 281 282 282 282 282 283 284 285 286 286 286 286 287 288 289 290 291 292 291 291 293 295 297 298 301 303 304 305 304 303 302 300 299 297 294 294 296 297 298 298 299 298 294 290 291 295 298 301 302 300 300 300 301 303 302 301 302 304 305 304 302 300 299 296 293 294 299 303 302 300 292 272 262 253
279 279 279 278 278 277 276 277 278 279 280 281 282 283 282 282 283 284 285 285 285 285 286 287 288 289 290 291 290 290 291 293 295 297 299 301 302 303 303 302 302 301 299 298 295 292 292 293 296 298 299 298 295 292 291 293 296 299 300 300 298 299 301 301 301 300 299 300 302 302 301 298 295 294 292 288 289 295 301 302 299 287 270 261 252
281 281 281 281 280 278 276 277 279 280 281 283 284 283 283 284 284 284 284 284 285 285 287 288 289 290 290 290 290 290 291 293 295 297 299 300 300 301 301 302 302 301 300 298 296 294 294 295 297 298 298 296 294 292 292 294 296 298 299 299 299 300 300 301 301 300 299 300 301 299 296 293 290 288 287 285 284 288 296 299 294 280 267 260 255
275 277 280 284 284 282 281 282 281 282 284 285 286 285 284 284 284 284 284 284 285 286 287 288 289 289 289 289 289 290 292 294 296 297 298 298 299 299 300 301 301 300 299 297 296 295 295 296 297 297 297 296 294 293 294 295 295 296 298 298 298 299 301 302 304 303 301 301 300 296 292 288 283 282 283 281 279 282 289 293 288 274 263 259 257
267 273 276 280 283 284 284 286 285 285 286 286 285 284 283 283 283 283 283 284 286 287 287 288 287 288 288 288 289 291 293 295 296 297 297 297 297 298 299 300 300 299 297 296 295 294 295 297 296 296 295 295 294 294 294 292 292 293 296 297 298 300 303 305 307 306 302 300 297 293 288 281 276 278 280 278 275 277 284 288 283 270 260 259 258
266 270 273 276 281 283 284 286 287 287 286 284 283 282 282 282 282 282 283 284 285 285 285 285 285 286 286 288 289 292 293 295 296 296 297 297 298 299 300 300 300 298 296 295 295 295 296 296 295 295 296 296 294 291 288 286 285 288 291 294 297 300 302 305 307 306 302 298 295 291 284 274 272 275 276 273 271 273 279 282 277 265 258 256 256
272 273 275 277 279 281 283 284 285 285 284 284 283 281 281 281 281 282 283 283 283 283 282 283 283 285 286 288 290 292 293 295 296 297 299 299 300 302 303 303 302 300 299 298 297 296 296 296 296 297 298 294 287 280 278 278 280 284 288 289 292 297 299 302 304 305 302 297 292 287 276 266 267 269 269 267 267 270 274 274 266 258 256 254 253
276 278 278 279 279 280 280 281 282 282 282 282 281 280 279 280 280 280 281 281 280 280 280 281 283 284 286 288 290 292 294 296 298 300 302 303 305 307 307 306 305 305 303 301 299 298 298 298 298 295 291 284 279 277 277 278 281 284 286 286 289 294 297 301 303 303 299 293 287 279 267 261 262 264 265 265 264 265 266 266 261 254 254 255 255
281 280 279 278 277 278 278 278 279 279 279 278 278 277 277 278 278 278 278 277 277 277 279 281 282 284 286 288 290 293 296 299 300 303 305 307 310 313 311 309 308 308 307 305 304 303 301 299 292 284 278 275 274 276 278 280 282 284 285 287 291 296 299 302 300 295 290 285 280 269 260 258 259 260 261 260 258 257 258 260 259 256 255 256 257
283 280 277 275 275 277 278 277 275 274 274 273 274 274 275 275 275 274 275 275 275 277 278 279 280 282 285 288 292 295 298 299 301 303 306 310 315 317 317 314 313 312 312 313 312 308 302 295 287 281 278 277 277 279 281 284 286 288 289 291 295 299 300 296 290 285 282 278 273 262 256 256 258 259 257 253 251 251 253 255 259 262 262 262 262
270 270 271 276 282 282 280 276 272 270 269 269 270 270 271 271 272 272 273 273 274 275 276 277 278 280 285 289 293 295 295 296 299 301 304 310 315 318 322 323 322 321 321 320 317 312 304 297 293 290 288 288 289 290 292 294 295 297 297 296 296 297 294 289 285 283 278 273 269 258 251 255 260 260 257 251 247 247 249 254 260 263 265 267 270
248 251 263 278 285 281 278 275 271 270 269 269 269 269 270 270 270 271 272 273 273 273 274 275 277 281 287 290 292 291 291 292 296 298 302 308 312 318 326 329 328 330 331 326 322 318 310 303 301 300 299 299 300 301 303 304 305 304 301 297 296 295 291 284 281 279 273 269 270 264 255 258 261 260 256 251 249 250 252 256 259 260 263 270 275
235 232 243 262 267 263 264 269 271 272 272 271 271 270 269 269 268 270 271 271 271 271 273 274 277 282 287 287 286 287 288 292 295 297 300 305 309 315 322 326 328 333 336 331 326 322 315 309 308 308 307 308 311 314 315 312 309 307 304 302 302 299 291 280 273 271 266 259 261 264 261 260 259 258 259 260 259 258 259 260 257 258 265 272 273
237 231 230 241 250 252 253 259 268 274 273 271 271 269 266 266 266 268 267 265 266 268 271 273 277 282 284 282 282 284 289 292 294 297 299 302 305 309 315 322 328 333 336 335 333 330 323 318 317 317 318 321 325 325 320 316 314 316 316 317 319 313 300 287 272 259 255 255 258 261 260 258 259 262 263 263 262 259 257 255 258 265 269 269 264
238 234 232 236 243 249 252 257 266 271 271 268 266 266 264 263 263 263 261 260 263 266 268 272 278 281 279 277 279 283 287 290 294 297 300 302 304 308 313 319 325 330 332 334 336 336 333 330 330 330 333 336 333 325 321 322 326 334 337 337 335 331 321 300 269 249 250 257 261 262 262 261 260 261 261 260 259 257 253 253 262 270 269 264 258
237 234 234 237 241 246 251 256 262 265 266 264 261 261 261 260 261 261 260 260 262 264 267 272 277 276 275 276 278 281 285 289 293 298 300 302 303 306 310 314 319 324 326 329 332 335 335 336 339 342 345 339 330 326 331 341 346 349 352 353 347 340 335 307 251 241 246 254 261 264 263 263 262 257 257 257 257 259 260 264 270 272 267 263 259
236 234 234 237 240 244 248 252 256 259 259 259 260 262 261 259 260 262 263 262 262 263 267 271 272 272 274 276 277 280 284 289 294 298 301 302 302 304 307 309 312 315 318 322 324 327 329 333 339 344 344 336 332 342 360 6 4 358 355 356 353 345 337 305 249 239 242 246 255 258 254 255 257 255 257 259 259 261 263 268 272 273 270 266 262
232 232 233 237 241 244 248 249 251 252 252 255 261 265 264 261 260 262 264 263 261 263 267 269 270 271 274 275 276 280 285 290 294 297 300 302 302 303 305 307 309 311 314 317 318 320 322 327 333 337 335 331 332 348 1 5 6 2 354 349 345 339 334 316 274 253 249 244 246 249 248 251 256 259 264 266 266 266 265 265 268 272 274 272 269
228 229 232 238 242 244 247 249 249 249 249 254 260 263 262 261 261 263 264 263 262 264 267 269 271 273 274 275 278 282 287 290 293 295 298 301 302 303 305 307 309 311 314 315 316 317 318 322 326 327 327 321 312 321 334 343 352 357 354 346 333 319 311 307 290 270 258 250 248 249 250 255 260 265 270 271 270 269 269 267 268 272 276 276 274
225 228 232 237 241 243 246 250 250 251 252 255 259 260 260 260 261 263 264 265 265 266 269 270 271 273 274 276 280 284 287 289 291 293 296 299 301 303 304 307 309 311 313 315 316 317 316 318 319 319 319 310 298 303 314 325 334 345 349 344 335 317 290 275 274 274 268 260 256 255 255 257 261 266 270 271 267 267 269 271 274 278 280 280 280
224 228 231 236 239 242 245 249 251 253 255 257 259 260 260 260 262 264 266 267 268 268 269 271 271 272 274 277 282 285 286 287 288 291 295 298 300 303 304 306 309 311 313 315 315 315 314 313 312 312 312 305 297 299 307 317 324 332 340 340 334 327 304 268 255 258 265 265 262 261 260 260 262 265 268 267 263 263 267 272 276 281 283 284 285
225 228 231 235 238 241 244 247 250 253 255 257 258 260 261 262 263 265 267 268 269 269 268 269 270 270 273 277 281 284 284 286 288 291 294 296 299 302 303 305 308 311 313 313 313 311 309 308 307 306 305 301 297 298 304 312 317 322 329 334 331 325 319 296 261 248 249 253 256 259 259 259 261 262 264 266 264 264 267 271 274 277 279 280 280
226 230 232 236 239 242 245 247 249 251 254 256 257 259 261 262 263 265 267 268 269 269 268 268 269 270 273 277 279 282 283 285 288 291 293 296 299 301 302 304 307 310 311 312 310 306 304 303 302 301 300 298 296 296 301 307 311 314 318 324 325 319 314 308 291 266 253 249 249 251 253 254 257 258 261 264 264 265 268 270 272 273 273 274 274
228 231 233 236 240 243 245 247 249 251 253 255 257 259 260 261 262 263 265 266 267 269 268 267 268 270 273 276 278 280 282 284 287 290 293 295 297 299 301 304 306 308 308 309 307 303 302 301 298 298 298 298 296 295 299 303 307 310 313 316 318 315 309 303 298 292 279 266 257 254 254 255 257 258 260 262 264 265 266 267 268 269 270 272 273
229 230 232 235 239 242 244 247 250 251 253 255 257 260 261 261 261 262 263 264 266 269 270 269 268 269 272 275 278 280 282 285 287 288 290 292 294 296 299 302 304 305 305 306 305 302 302 300 297 297 298 298 298 298 300 303 305 307 310 312 313 311 306 301 298 295 291 287 278 267 262 262 262 262 263 264 265 266 267 268 269 270 271 273 275
231 231 231 233 236 240 242 245 248 250 250 252 255 259 261 262 262 262 263 264 265 267 270 270 270 271 274 276 278 281 283 285 285 285 286 288 290 293 296 298 299 301 303 304 303 302 302 300 299 298 298 298 299 301 303 304 306 307 308 309 309 308 304 300 298 296 293 293 291 284 278 276 273 271 270 270 270 271 272 273 274 275 276 278 280
Height
10883 10884 10885 10887 10886 10886 10886 10886 10886 10886 10886 10886 10886 10885 10884 10883 10882 10881 10880 10879 10877 10875 10873 10871 10869 10866 10863 10861 10861 10860 10860 10859 10858 10857 10856 10855 10854 10853 10851 10849 10847 10844 10840 10837 10835 10833 10830 10827 10824 10821 10819 10817 10815 10812 10810 10808 10806 10805 10803 10801 10798 10796 10794 10793 10790 10788 10787 10785 10784 10782 10780 10778 10776 10775 10773 10771 10769 10766 10765 10763 10762 10761 10761 10762 10763
10880 10881 10883 10884 10883 10883 10881 10881 10882 10883 10883 10882 10882 10881 10880 10879 10877 10876 10875 10874 10873 10871 10869 10867 10865 10862 10859 10857 10856 10856 10855 10855 10854 10853 10852 10851 10850 10849 10847 10845 10843 10840 10837 10834 10832 10829 10826 10823 10820 10817 10815 10813 10811 10809 10807 10805 10803 10802 10800 10797 10795 10793 10791 10790 10787 10786 10784 10782 10781 10780 10778 10776 10774 10772 10770 10768 10766 10764 10762 10761 10760 10759 10759 10760 10762
10878 10879 10880 10881 10880 10880 10878 10877 10878 10880 10880 10879 10878 10876 10875 10874 10873 10871 10870 10869 10868 10866 10865 10863 10861 10858 10856 10854 10852 10852 10851 10851 10850 10849 10848 10847 10846 10844 10843 10842 10840 10836 10833 10831 10828 10825 10822 10819 10816 10813 10811 10809 10807 10805 10803 10801 10800 10798 10796 10794 10792 10790 10788 10786 10784 10783 10782 10780 10779 10777 10776 10774 10772 10770 10768 10766 10764 10762 10760 10759 10758 10758 10758 10758 10759
10874 10875 10876 10877 10877 10877 10876 10874 10874 10876 10876 10875 10874 10872 10871 10869 10868 10867 10865 10864 10863 10861 10860 10859 10857 10855 10853 10851 10849 10848 10847 10846 10845 10844 10844 10843 10841 10840 10839 10838 10835 10832 10829 10827 10824 10821 10818 10814 10811 10809 10807 10805 10804 10802 10800 10798 10797 10795 10793 10791 10789 10788 10785 10783 10781 10780 10779 10778 10776 10775 10774 10772 10770 10768 10766 10764 10762 10760 10758 10757 10756 10757 10758 10757 10756
10869 10871 10872 10873 10874 10874 10873 10871 10870 10872 10872 10871 10870 10868 10867 10865 10864 10862 10861 10859 10857 10856 10855 10854 10853 10851 10849 10848 10846 10845 10844 10842 10840 10839 10839 10838 10837 10836 10835 10834 10831 10828 10825 10823 10820 10817 10814 10810 10807 10805 10803 10801 10800 10798 10797 10795 10793 10791 10789 10788 10786 10785 10783 10781 10779 10777 10776 10776 10774 10773 10771 10770 10767 10765 10764 10762 10760 10758 10757 10756 10755 10755 10755 10755 10755
10866 10866 10867 10868 10869 10870 10869 10867 10866 10867 10867 10867 10865 10864 10862 10860 10859 10858 10856 10854 10852 10850 10849 10849 10848 10847 10846 10845 10842 10841 10840 10838 10836 10835 10834 10834 10832 10831 10831 10830 10827 10824 10821 10819 10816 10813 10809 10806 10803 10800 10799 10797 10796 10795 10793 10791 10790 10788 10786 10785 10783 10782 10780 10778 10776 10775 10774 10773 10772 10770 10769 10767 10765 10763 10762 10760 10758 10756 10755 10754 10754 10753 10753 10754 10754
10861 10862 10863 10864 10864 10864 10864 10862 10862 10862 10862 10862 10860 10859 10857 10856 10855 10853 10851 10849 10847 10845 10845 10844 10844 10843 10842 10841 10839 10837 10836 10833 10832 10830 10830 10829 10827 10827 10827 10826 10823 10820 10818 10815 10812 10809 10805 10802 10799 10797 10795 10794 10793 10792 10790 10788 10786 10785 10784 10782 10780 10779 10777 10775 10774 10773 10772 10771 10769 10768 10766 10764 10763 10762 10760 10758 10756 10755 10754 10753 10752 10752 10752 10753 10753
10856 10857 10858 10859 10859 10859 10858 10858 10858 10857 10857 10856 10855 10853 10852 10850 10849 10848 10847 10845 10843 10841 10841 10840 10840 10839 10838 10836 10834 10833 10831 10829 10828 10826 10825 10824 10822 10822 10823 10823 10819 10816 10814 10811 10809 10805 10801 10798 10795 10793 10791 10790 10790 10789 10787 10784 10783 10782 10781 10780 10778 10776 10775 10773 10772 10771 10770 10769 10767 10766 10764 10762 10761 10759 10758 10756 10754 10753 10752 10751 10751 10751 10751 10751 10752
10850 10852 10853 10853 10854 10854 10854 10854 10854 10853 10851 10850 10849 10848 10846 10845 10844 10843 10842 10841 10839 10838 10837 10837 10836 10835 10833 10831 10830 10828 10827 10825 10823 10822 10820 10819 10818 10817 10818 10819 10816 10812 10810 10808 10805 10802 10798 10794 10791 10789 10787 10787 10786 10786 10784 10781 10780 10780 10778 10777 10776 10774 10773 10771 10770 10769 10768 10767 10765 10764 10762 10760 10759 10757 10756 10754 10752 10751 10750 10750 10749 10749 10750 10750 10750
10845 10847 10847 10848 10848 10848 10849 10849 10849 10848 10846 10845 10843 10842 10840 10839 10839 10838 10837 10837 10835 10835 10834 10833 10832 10830 10829 10826 10824 10824 10822 10820 10819 10817 10815 10814 10813 10812 10813 10815 10812 10808 10806 10804 10802 10798 10795 10791 10788 10785 10784 10783 10783 10783 10781 10778 10777 10777 10776 10774 10773 10772 10771 10769 10768 10767 10766 10765 10763 10762 10760 10759 10757 10756 10754 10753 10751 10750 10749 10748 10748 10748 10748 10749 10749
10841 10841 10842 10842 10843 10844 10844 10844 10844 10843 10841 10839 10837 10836 10835 10834 10834 10833 10833 10832 10831 10831 10830 10829 10828 10826 10824 10822 10820 10819 10818 10816 10814 10813 10810 10809 10807 10807 10808 10810 10809 10805 10802 10800 10798 10795 10792 10788 10784 10782 10780 10779 10779 10779 10779 10776 10774 10774 10773 10772 10771 10770 10769 10767 10766 10765 10764 10763 10762 10760 10759 10757 10756 10754 10753 10751 10749 10748 10747 10747 10746 10746 10747 10747 10747
10836 10836 10837 10837 10838 10839 10840 10840 10839 10837 10835 10834 10832 10831 10830 10830 10829 10828 10827 10827 10826 10826 10826 10825 10823 10821 10819 10817 10815 10814 10813 10812 10810 10808 10806 10804 10802 10802 10803 10805 10805 10801 10798 10796 10794 10792 10789 10785 10781 10779 10777 10775 10775 10776 10776 10775 10772 10771 10771 10770 10769 10768 10767 10766 10764 10763 10762 10761 10760 10759 10757 10756 10754 10753 10751 10749 10748 10746 10745 10745 10745 10745 10745 10746 10746
10830 10830 10832 10833 10833 10834 10835 10834 10833 10831 10830 10828 10827 10826 10825 10825 10824 10823 10822 10821 10821 10821 10821 10819 10818 10816 10814 10813 10811 10809 10808 10807 10805 10803 10801 10799 10798 10797 10798 10800 10801 10798 10795 10792 10791 10789 10786 10782 10779 10776 10773 10772 10772 10773 10774 10773 10770 10768 10768 10768 10767 10766 10765 10764 10763 10761 10760 10759 10759 10757 10756 10754 10753 10751 10749 10747 10746 10744 10743 10743 10743 10743 10743 10744 10744
10823 10825 10826 10827 10829 10829 10829 10828 10827 10825 10824 10823 10822 10821 10821 10820 10819 10818 10817 10817 10816 10815 10815 10813 10812 10810 10809 10808 10806 10805 10803 10802 10801 10799 10797 10795 10794 10793 10793 10794 10795 10794 10792 10789 10788 10785 10783 10779 10776 10773 10770 10768 10768 10769 10771 10771 10768 10766 10766 10766 10765 10764 10763 10762 10761 10759 10758 10758 10757 10756 10754 10753 10751 10749 10747 10746 10744 10742 10741 10741 10741 10741 10741 10742 10743
10818 10820 10821 10822 10823 10823 10823 10822 10820 10819 10818 10818 10817 10816 10816 10815 10814 10813 10813 10812 10811 10810 10808 10807 10805 10804 10803 10803 10802 10800 10798 10797 10796 10794 10792 10791 10789 10788 10788 10790 10791 10790 10788 10786 10784 10782 10779 10776 10773 10770 10767 10765 10765 10766 10767 10768 10766 10764 10764 10764 10763 10762 10761 10760 10759 10757 10756 10755 10755 10754 10752 10751 10749 10748 10746 10744 10742 10741 10740 10739 10739 10739 10739 10740 10741
10814 10815 10817 10818 10818 10817 10816 10815 10814 10813 10812 10812 10811 10811 10810 10810 10809 10808 10808 10807 10806 10804 10802 10800 10799 10799 10798 10797 10796 10795 10794 10792 10790 10789 10787 10786 10785 10784 10784 10785 10787 10786 10785 10783 10781 10778 10776 10773 10770 10767 10765 10763 10761 10762 10763 10764 10764 10762 10761 10761 10761 10759 10759 10758 10757 10755 10754 10753 10752 10751 10750 10749 10747 10746 10744 10742 10740 10739 10738 10737 10737 10737 10738 10738 10739
10809 10811 10812 10813 10812 10811 10810 10808 10807 10807 10807 10806 10806 10805 10805 10805 10804 10803 10802 10801 10799 10797 10796 10794 10794 10794 10793 10792 10791 10790 10789 10787 10785 10784 10783 10781 10781 10780 10780 10781 10782 10782 10781 10779 10777 10775 10773 10770 10768 10765 10762 10760 10758 10758 10760 10761 10761 10760 10759 10759 10758 10757 10756 10755 10754 10753 10752 10751 10750 10749 10748 10746 10745 10743 10742 10740 10738 10737 10736 10735 10735 10735 10736 10736 10737
10803 10806 10807 10806 10805 10804 10803 10802 10802 10801 10801 10801 10800 10800 10800 10800 10799 10798 10796 10795 10793 10791 10790 10789 10789 10788 10787 10787 10787 10785 10784 10783 10781 10780 10779 10777 10776 10776 10775 10776 10777 10778 10776 10775 10773 10772 10770 10768 10766 10763 10760 10757 10756 10755 10756 10757 10759 10758 10757 10756 10756 10755 10754 10753 10752 10751 10750 10748 10747 10746 10745 10744 10742 10741 10740 10738 10736 10735 10734 10734 10734 10734 10734 10734 10735
10797 10799 10799 10799 10798 10797 10796 10796 10796 10796 10796 10795 10795 10795 10795 10794 10793 10792 10790 10788 10786 10785 10785 10784 10784 10783 10783 10783 10782 10781 10780 10779 10777 10776 10776 10774 10773 10772 10771 10771 10772 10772 10772 10770 10769 10768 10767 10766 10764 10761 10758 10755 10753 10752 10753 10754 10756 10755 10754 10753 10753 10753 10752 10750 10749 10748 10747 10746 10745 10743 10742 10741 10740 10739 10738 10736 10735 10734 10733 10732 10732 10732 10732 10733 10733
10791 10791 10791 10791 10791 10790 10790 10791 10791 10791 10790 10790 10790 10790 10790 10789 10787 10786 10783 10781 10780 10780 10780 10779 10778 10778 10779 10779 10778 10777 10776 10775 10773 10772 10772 10771 10769 10768 10767 10767 10767 10767 10767 10766 10765 10765 10764 10763 10761 10759 10756 10754 10751 10750 10750 10751 10752 10753 10752 10750 10750 10750 10748 10747 10746 10745 10744 10743 10742 10741 10740 10738 10737 10737 10736 10734 10733 10732 10731 10731 10731 10731 10731 10731 10731
10784 10783 10784 10784 10784 10784 10785 10786 10785 10784 10784 10784 10785 10786 10785 10783 10781 10779 10777 10775 10775 10775 10775 10774 10774 10774 10775 10775 10773 10772 10772 10771 10769 10768 10768 10768 10767 10765 10763 10762 10762 10762 10762 10761 10761 10761 10761 10760 10758 10757 10754 10751 10748 10747 10747 10747 10749 10750 10749 10748 10747 10746 10745 10744 10743 10742 10741 10740 10739 10738 10737 10736 10735 10734 10733 10732 10731 10730 10730 10729 10729 10729 10729 10730 10730
10778 10777 10778 10778 10778 10779 10779 10779 10778 10778 10778 10779 10780 10780 10779 10777 10775 10772 10770 10770 10770 10770 10769 10769 10769 10770 10770 10770 10769 10767 10768 10767 10765 10765 10764 10764 10764 10762 10760 10759 10758 10757 10756 10756 10757 10757 10757 10756 10755 10753 10752 10749 10746 10744 10743 10744 10745 10746 10746 10745 10744 10743 10742 10740 10739 10739 10738 10737 10736 10735 10734 10733 10732 10732 10731 10730 10729 10729 10728 10728 10727 10728 10728 10728 10729
10772 10772 10772 10772 10772 10773 10772 10771 10771 10771 10773 10773 10774 10774 10773 10771 10768 10766 10765 10765 10766 10765 10764 10764 10764 10765 10766 10766 10765 10763 10763 10762 10762 10761 10761 10761 10760 10759 10757 10756 10754 10752 10751 10751 10752 10753 10754 10753 10751 10750 10749 10746 10743 10741 10740 10740 10741 10742 10742 10742 10741 10740 10738 10737 10735 10735 10735 10734 10733 10732 10732 10731 10730 10729 10729 10728 10727 10727 10726 10726 10726 10726 10726 10727 10728
10766 10767 10767 10767 10766 10766 10765 10764 10764 10765 10767 10767 10767 10767 10766 10764 10762 10761 10761 10761 10761 10760 10759 10760 10760 10761 10761 10761 10760 10759 10758 10758 10757 10757 10757 10757 10756 10755 10754 10752 10750 10749 10747 10746 10747 10748 10749 10749 10748 10747 10746 10744 10741 10738 10736 10735 10737 10738 10739 10738 10737 10736 10734 10733 10732 10731 10731 10731 10730 10729 10729 10728 10728 10727 10726 10726 10725 10725 10725 10724 10724 10724 10725 10725 10726
10760 10760 10761 10761 10760 10759 10759 10758 10758 10759 10760 10761 10761 10761 10760 10758 10756 10756 10756 10756 10756 10755 10755 10755 10756 10757 10757 10756 10756 10755 10754 10754 10753 10753 10753 10752 10752 10751 10750 10748 10747 10745 10744 10743 10743 10743 10744 10745 10745 10745 10743 10741 10738 10735 10733 10731 10732 10734 10734 10734 10733 10732 10731 10731 10730 10728 10727 10727 10727 10726 10725 10725 10725 10724 10724 10723 10723 10723 10723 10722 10722 10722 10723 10724 10725
10754 10755 10755 10754 10754 10753 10752 10752 10752 10753 10754 10754 10755 10755 10754 10751 10751 10751 10752 10752 10751 10750 10751 10751 10752 10752 10752 10752 10751 10751 10750 10750 10750 10749 10749 10748 10748 10746 10745 10744 10743 10742 10741 10740 10739 10739 10740 10741 10741 10741 10740 10737 10735 10732 10729 10728 10728 10730 10730 10729 10729 10728 10728 10728 10727 10725 10723 10723 10723 10722 10722 10722 10722 10722 10721 10721 10721 10720 10720 10720 10720 10721 10721 10722 10723
10748 10749 10749 10749 10748 10747 10746 10746 10747 10747 10748 10749 10750 10750 10748 10746 10746 10747 10747 10747 10746 10746 10747 10748 10748 10748 10748 10747 10747 10746 10746 10746 10746 10745 10745 10745 10744 10742 10741 10740 10739 10738 10737 10736 10735 10735 10736 10737 10737 10737 10735 10733 10731 10729 10727 10725 10724 10725 10726 10725 10725 10725 10725 10724 10723 10722 10720 10719 10719 10719 10719 10719 10719 10719 10719 10718 10718 10718 10718 10718 10718 10719 10719 10720 10721
10744 10744 10744 10744 10742 10741 10740 10741 10742 10742 10743 10745 10746 10744 10743 10742 10742 10742 10742 10742 10742 10742 10743 10743 10744 10744 10743 10743 10742 10742 10742 10742 10742 10742 10741 10741 10740 10738 10737 10736 10735 10734 10732 10732 10731 10731 10732 10732 10733 10732 10730 10728 10727 10725 10723 10722 10721 10721 10721 10721 10721 10721 10721 10721 10720 10719 10718 10716 10716 10715 10715 10715 10716 10716 10716 10716 10716 10716 10716 10716 10716 10717 10717 10718 10719
10739 10739 10740 10739 10738 10736 10736 10737 10738 10738 10739 10741 10741 10739 10738 10737 10737 10737 10738 10738 10738 10739 10739 10739 10739 10739 10739 10738 10738 10738 10738 10738 10738 10738 10737 10737 10736 10734 10733 10732 10731 10730 10728 10727 10727 10727 10727 10728 10728 10727 10725 10723 10722 10721 10720 10719 10718 10718 10718 10718 10718 10718 10717 10717 10717 10716 10715 10713 10713 10712 10712 10712 10712 10713 10713 10713 10713 10713 10714 10714 10714 10715 10716 10716 10717
10735 10735 10735 10734 10733 10732 10732 10733 10734 10734 10735 10735 10735 10734 10733 10733 10732 10733 10733 10734 10734 10735 10734 10734 10734 10734 10734 10734 10734 10734 10734 10734 10734 10733 10733 10732 10731 10730 10729 10728 10727 10726 10724 10723 10722 10722 10723 10723 10723 10723 10721 10719 10718 10717 10717 10716 10715 10715 10715 10715 10715 10714 10714 10714 10713 10713 10711 10710 10710 10709 10709 10709 10709 10710 10710 10710 10711 10711 10712 10712 10712 10713 10714 10715 10715
10730 10731 10731 10729 10729 10728 10727 10727 10727 10727 10727 10729 10729 10728 10728 10727 10728 10728 10728 10729 10730 10730 10730 10729 10730 10730 10730 10730 10729 10730 10730 10729 10729 10729 10729 10728 10728 10727 10726 10725 10724 10722 10720 10718 10718 10718 10719 10719 10719 10718 10717 10716 10715 10714 10714 10713 10713 10713 10713 10712 10712 10711 10710 10710 10710 10709 10708 10707 10707 10706 10706 10706 10706 10707 10707 10708 10708 10709 10710 10710 10711 10711 10712 10713 10714
10725 10726 10726 10725 10725 10723 10722 10721 10720 10719 10720 10722 10723 10723 10722 10722 10723 10723 10724 10725 10725 10725 10725 10725 10725 10725 10725 10725 10725 10726 10726 10725 10725 10725 10725 10724 10724 10723 10722 10721 10719 10718 10716 10714 10714 10714 10715 10715 10714 10714 10713 10713 10712 10712 10711 10711 10710 10710 10710 10709 10709 10708 10707 10706 10706 10705 10705 10704 10703 10702 10702 10702 10703 10704 10705 10706 10706 10707 10708 10708 10709 10710 10710 10711 10712
10719 10719 10720 10720 10718 10717 10716 10714 10713 10712 10714 10716 10717 10717 10717 10717 10718 10719 10719 10720 10720 10720 10720 10721 10721 10721 10721 10721 10722 10722 10722 10722 10722 10722 10721 10721 10720 10720 10719 10717 10715 10713 10712 10710 10710 10711 10711 10711 10710 10710 10711 10711 10710 10709 10708 10708 10708 10707 10706 10706 10705 10704 10703 10702 10702 10702 10701 10700 10699 10699 10699 10699 10700 10701 10702 10703 10704 10705 10706 10706 10707 10708 10708 10709 10709
10714 10713 10712 10711 10711 10710 10709 10707 10706 10706 10708 10710 10711 10711 10712 10713 10714 10714 10715 10715 10715 10715 10716 10717 10716 10716 10717 10718 10718 10718 10718 10719 10719 10718 10718 10717 10717 10716 10715 10713 10711 10710 10708 10707 10707 10707 10708 10707 10707 10708 10708 10708 10708 10707 10706 10705 10705 10704 10703 10702 10701 10700 10698 10698 10698 10697 10696 10696 10696 10696 10696 10697 10698 10699 10700 10700 10701 10702 10703 10704 10705 10706 10706 10707 10707
10709 10706 10703 10703 10704 10703 10702 10700 10700 10701 10702 10703 10705 10706 10707 10708 10709 10710 10710 10711 10711 10712 10713 10713 10712 10713 10714 10714 10714 10715 10715 10716 10716 10716 10715 10715 10714 10713 10712 10710 10708 10707 10705 10705 10705 10705 10705 10705 10705 10705 10705 10705 10705 10704 10703 10702 10702 10701 10699 10698 10697 10696 10694 10693 10692 10691 10692 10692 10693 10693 10694 10694 10695 10697 10697 10698 10698 10699 10701 10701 10702 10703 10704 10704 10705
10704 10702 10699 10699 10699 10698 10696 10694 10694 10695 10696 10698 10700 10702 10702 10704 10705 10706 10706 10706 10707 10708 10709 10709 10709 10710 10711 10711 10711 10712 10712 10713 10713 10713 10712 10712 10711 10710 10709 10707 10705 10704 10703 10702 10702 10703 10702 10702 10702 10702 10702 10702 10702 10701 10700 10699 10698 10697 10695 10694 10692 10691 10689 10687 10687 10687 10688 10689 10690 10691 10691 10692 10693 10694 10695 10696 10696 10697 10699 10699 10700 10701 10701 10702 10703
10698 10699 10698 10697 10696 10692 10690 10689 10689 10690 10692 10694 10696 10698 10699 10700 10701 10702 10703 10703 10703 10704 10705 10705 10706 10707 10707 10707 10708 10709 10710 10710 10710 10710 10710 10709 10708 10708 10707 10706 10703 10702 10701 10700 10700 10700 10700 10699 10699 10699 10699 10699 10698 10698 10697 10696 10695 10693 10691 10689 10688 10687 10685 10684 10685 10685 10686 10686 10687 10688 10689 10690 10691 10692 10693 10694 10695 10696 10697 10698 10698 10698 10699 10699 10701
10691 10696 10696 10694 10690 10686 10685 10685 10685 10686 10688 10690 10693 10694 10695 10696 10697 10698 10699 10699 10700 10701 10702 10703 10703 10704 10704 10704 10705 10706 10706 10706 10707 10707 10707 10707 10707 10706 10706 10705 10702 10700 10699 10698 10698 10698 10698 10697 10697 10697 10696 10696 10695 10695 10694 10693 10692 10690 10687 10685 10684 10683 10682 10682 10683 10684 10685 10685 10685 10686 10687 10688 10689 10690 10691 10692 10693 10694 10695 10696 10696 10696 10697 10697 10698
10687 10691 10691 10688 10684 10681 10681 10682 10683 10685 10686 10687 10689 10690 10691 10693 10694 10695 10696 10696 10697 10698 10699 10700 10700 10701 10701 10701 10702 10702 10703 10703 10704 10704 10704 10705 10705 10705 10704 10704 10701 10699 10697 10697 10696 10697 10696 10695 10694 10694 10694 10693 10692 10692 10691 10690 10689 10687 10684 10682 10681 10680 10680 10681 10682 10683 10684 10684 10683 10684 10685 10686 10687 10688 10689 10690 10690 10692 10693 10694 10694 10695 10695 10695 10696
10682 10684 10684 10683 10680 10679 10678 10679 10681 10683 10683 10685 10686 10687 10688 10690 10691 10691 10692 10693 10694 10695 10696 10696 10697 10698 10698 10699 10699 10700 10700 10700 10701 10702 10702 10702 10702 10702 10702 10701 10700 10698 10696 10695 10695 10695 10694 10693 10692 10692 10691 10690 10690 10690 10689 10687 10686 10684 10682 10680 10678 10678 10679 10680 10681 10683 10683 10683 10682 10682 10683 10684 10685 10685 10686 10687 10688 10689 10690 10691 10692 10692 10693 10694 10694
10677 10679 10680 10679 10677 10675 10675 10676 10679 10680 10681 10682 10683 10684 10685 10686 10687 10687 10689 10690 10690 10692 10693 10693 10694 10695 10695 10696 10696 10697 10697 10698 10699 10700 10700 10699 10699 10700 10700 10699 10699 10697 10695 10694 10694 10693 10693 10692 10691 10690 10689 10689 10688 10688 10687 10685 10683 10681 10680 10679 10677 10677 10677 10679 10680 10681 10681 10681 10680 10680 10681 10682 10682 10683 10683 10684 10685 10686 10686 10687 10689 10690 10690 10691 10692
10671 10675 10676 10675 10673 10671 10670 10673 10675 10677 10678 10678 10679 10680 10681 10682 10683 10684 10685 10687 10688 10688 10689 10690 10691 10691 10692 10693 10693 10694 10694 10695 10696 10697 10697 10697 10697 10697 10697 10697 10697 10696 10694 10693 10692 10692 10691 10690 10689 10688 10688 10688 10687 10686 10684 10682 10681 10679 10678 10677 10676 10676 10676 10677 10679 10679 10679 10679 10679 10678 10679 10679 10679 10680 10680 10681 10682 10683 10683 10683 10685 10686 10687 10688 10689
10665 10669 10671 10670 10669 10666 10666 10668 10670 10672 10674 10674 10674 10675 10677 10678 10679 10681 10682 10684 10684 10685 10686 10687 10688 10688 10689 10689 10690 10690 10691 10692 10693 10693 10693 10694 10694 10694 10695 10695 10694 10693 10692 10691 10690 10690 10689 10688 10687 10687 10687 10687 10686 10684 10682 10681 10680 10678 10676 10675 10674 10674 10674 10675 10676 10677 10677 10677 10676 10675 10676 10676 10676 10676 10677 10678 10679 10679 10680 10680 10681 10681 10682 10684 10685
10661 10664 10664 10664 10664 10663 10663 10663 10665 10667 10669 10670 10670 10671 10673 10674 10676 10678 10679 10680 10681 10682 10682 10683 10684 10685 10685 10686 10686 10687 10688 10688 10689 10689 10690 10690 10691 10691 10692 10692 10692 10691 10690 10688 10688 10687 10686 10685 10685 10685 10685 10685 10684 10682 10681 10680 10679 10678 10676 10674 10673 10672 10671 10672 10673 10673 10674 10674 10673 10673 10673 10674 10675 10674 10674 10675 10675 10675 10676 10676 10677 10677 10678 10679 10680
10656 10657 10658 10658 10659 10659 10658 10659 10660 10662 10664 10666 10666 10667 10668 10670 10672 10674 10675 10676 10677 10678 10679 10680 10681 10681 10682 10682 10683 10683 10684 10684 10685 10685 10686 10686 10687 10688 10688 10688 10689 10688 10687 10686 10685 10684 10684 10683 10683 10683 10683 10683 10682 10680 10679 10679 10678 10677 10675 10673 10672 10670 10670 10669 10669 10670 10670 10671 10670 10670 10672 10673 10673 10672 10672 10673 10672 10671 10671 10671 10671 10672 10674 10674 10675
10650 10651 10652 10652 10653 10654 10654 10655 10657 10658 10659 10661 10662 10663 10664 10666 10668 10670 10671 10672 10673 10674 10675 10676 10677 10678 10678 10679 10679 10679 10680 10681 10681 10682 10682 10683 10683 10684 10684 10685 10685 10685 10684 10683 10682 10682 10681 10680 10680 10680 10681 10681 10680 10679 10677 10676 10676 10675 10674 10672 10671 10670 10669 10668 10667 10667 10667 10667 10667 10667 10668 10670 10670 10670 10670 10670 10670 10670 10669 10669 10668 10668 10669 10669 10669
10646 10647 10647 10647 10648 10649 10650 10651 10653 10654 10655 10656 10658 10659 10660 10662 10664 10665 10667 10667 10668 10670 10671 10672 10672 10673 10674 10675 10675 10676 10676 10677 10678 10678 10678 10678 10679 10680 10680 10682 10682 10682 10681 10681 10680 10679 10678 10678 10677 10677 10678 10678 10678 10676 10675 10674 10673 10673 10672 10671 10670 10669 10668 10666 10665 10665 10665 10664 10663 10663 10664 10665 10666 10666 10667 10668 10668 10668 10668 10668 10667 10667 10668 10668 10668
10644 10645 10645 10644 10645 10646 10647 10648 10649 10651 10651 10652 10654 10655 10657 10658 10660 10661 10662 10663 10664 10666 10667 10667 10668 10669 10670 10670 10671 10671 10672 10673 10674 10674 10674 10674 10675 10676 10677 10678 10679 10679 10679 10678 10677 10676 10675 10675 10674 10674 10674 10675 10674 10674 10673 10672 10671 10670 10670 10669 10669 10667 10666 10665 10664 10663 10663 10662 10661 10661 10661 10662 10662 10663 10664 10665 10666 10666 10666 10666 10666 10666 10667 10667 10667
10641 10643 10643 10643 10644 10645 10645 10645 10646 10647 10648 10648 10650 10652 10653 10654 10656 10658 10658 10659 10660 10662 10663 10663 10664 10665 10666 10666 10667 10667 10668 10669 10670 10670 10670 10671 10671 10672 10673 10674 10675 10675 10675 10675 10674 10674 10673 10672 10671 10671 10670 10671 10671 10670 10670 10669 10668 10668 10667 10667 10666 10665 10664 10663 10662 10661 10661 10660 10659 10659 10659 10659 10660 10661 10662 10662 10663 10663 10663 10663 10663 10663 10663 10663 10663
10637 10639 10640 10641 10642 10642 10643 10643 10643 10644 10644 10645 10646 10647 10648 10649 10652 10653 10654 10655 10657 10658 10659 10660 10661 10661 10662 10662 10663 10663 10664 10665 10666 10666 10667 10667 10668 10668 10669 10670 10671 10671 10672 10672 10671 10671 10670 10669 10668 10667 10667 10667 10667 10667 10667 10666 10665 10664 10664 10663 10663 10663 10662 10661 10660 10659 10658 10658 10657 10657 10656 10656 10657 10657 10658 10658 10659 10659 10659 10659 10659 10659 10658 10658 10657
10632 10634 10635 10637 10638 10639 10640 10640 10640 10641 10642 10642 10643 10643 10644 10645 10647 10649 10650 10651 10653 10654 10656 10657 10658 10658 10658 10659 10659 10660 10660 10661 10661 10662 10663 10664 10664 10665 10665 10666 10667 10667 10668 10668 10668 10667 10667 10666 10665 10664 10664 10663 10664 10664 10664 10663 10662 10661 10661 10660 10660 10659 10659 10658 10657 10657 10656 10656 10656 10655 10654 10653 10652 10652 10653 10653 10654 10654 10654 10653 10653 10653 10653 10653 10652